EW7146 Weather Reports


Display with metric or nautical units.
time (UTC)temp
F
wind
direction
speed
MPH
gust
MPH
rain 1hr
in
rain 24hr
in
rain mn
in
humidity
%
barometer
mb
20260510030811 66 210 0.0 1.0 0.00 0.00 0.00 41 1028.1
20260510030311 66 210 0.0 1.0 0.00 0.00 0.00 40 1028.1
20260510025811 67 162 0.0 1.0 0.00 0.00 0.00 41 1028.2
20260510025310 68 162 0.0 1.0 0.00 0.00 0.00 38 1028.1
20260510024811 68 111 0.0 1.0 0.00 0.00 0.00 36 1028.0
20260510024311 69 111 0.0 2.0 0.00 0.00 0.00 35 1028.0
20260510023812 69 111 0.0 3.0 0.00 0.00 0.00 35 1028.1
20260510023310 70 110 1.0 3.0 0.00 0.00 0.00 34 1028.2
20260510023035 70 120 0.0 3.0 0.00 0.00 0.00 33 1028.1
20260510022538 71 113 0.0 3.0 0.00 0.00 0.00 33 1028.1
20260510022034 71 123 0.0 5.0 0.00 0.00 0.00 33 1028.1
20260510021310 72 102 0.0 9.0 0.00 0.00 0.00 31 1028.2
20260510020810 72 107 2.0 9.0 0.00 0.00 0.00 30 1028.1
20260510020535 72 97 4.0 9.0 0.00 0.00 0.00 29 1028.2
20260510015809 73 134 4.0 9.0 0.00 0.00 0.00 30 1028.3
20260510015311 73 113 3.0 9.0 0.00 0.00 0.00 30 1028.2
20260510014809 73 69 4.0 7.0 0.00 0.00 0.00 29 1028.2
20260510014309 73 142 4.0 9.0 0.00 0.00 0.00 29 1028.3
20260510013809 74 149 5.0 9.0 0.00 0.00 0.00 30 1028.2
20260510013532 74 142 4.0 7.0 0.00 0.00 0.00 29 1028.2
20260510012810 73 148 4.0 6.0 0.00 0.00 0.00 29 1028.3
20260510012534 73 142 2.0 9.0 0.00 0.00 0.00 31 1028.4
20260510012027 73 103 4.0 11.0 0.00 0.00 0.00 30 1028.3
20260510011309 73 127 6.0 11.0 0.00 0.00 0.00 29 1028.3
20260510011028 73 118 4.0 10.0 0.00 0.00 0.00 30 1028.4
20260510010310 73 124 6.0 9.0 0.00 0.00 0.00 29 1028.5
20260510005808 73 73 2.0 9.0 0.00 0.00 0.00 30 1028.5
20260510005309 73 118 5.0 9.0 0.00 0.00 0.00 29 1028.6
20260510005031 74 116 4.0 9.0 0.00 0.00 0.00 29 1028.5
20260510004536 74 133 3.0 12.0 0.00 0.00 0.00 30 1028.6
20260510003808 74 128 5.0 12.0 0.00 0.00 0.00 29 1028.6
20260510003310 74 113 5.0 9.0 0.00 0.00 0.00 29 1028.6
20260510002808 74 92 4.0 11.0 0.00 0.00 0.00 29 1028.5
20260510002309 74 100 4.0 11.0 0.00 0.00 0.00 29 1028.5
20260510001808 74 107 3.0 10.0 0.00 0.00 0.00 28 1028.6
20260510001307 74 109 5.0 9.0 0.00 0.00 0.00 27 1028.6
20260510001030 74 130 4.0 9.0 0.00 0.00 0.00 28 1028.5
20260510000308 74 97 5.0 10.0 0.00 0.00 0.00 27 1028.6
20260509235808 75 145 5.0 10.0 0.00 0.00 0.00 27 1028.6
20260509235307 74 107 4.0 10.0 0.00 0.00 0.00 28 1028.7
20260509234808 74 89 4.0 11.0 0.00 0.00 0.00 28 1028.7
20260509234307 74 116 8.0 11.0 0.00 0.00 0.00 27 1028.7
20260509233808 75 107 6.0 10.0 0.00 0.00 0.00 27 1028.8
20260509233747 75 106 5.0 10.0 0.00 0.00 0.00 27 1028.8
20260509232806 75 100 4.0 10.0 0.00 0.00 0.00 26 1028.8
20260509232307 75 90 4.0 11.0 0.00 0.00 0.00 27 1028.9
20260509231806 75 90 7.0 13.0 0.00 0.00 0.00 26 1028.9
20260509231307 75 110 3.0 13.0 0.00 0.00 0.00 27 1029.1
20260509231026 76 131 3.0 12.0 0.00 0.00 0.00 28 1029.1
20260509230308 75 80 6.0 14.0 0.00 0.00 0.00 27 1029.1
20260509225805 75 90 6.0 14.0 0.00 0.00 0.00 28 1029.2
20260509225308 75 107 6.0 13.0 0.00 0.00 0.00 27 1029.2
20260509224805 75 107 3.0 9.0 0.00 0.00 0.00 29 1029.3
20260509224529 75 104 3.0 7.0 0.00 0.00 0.00 29 1029.4
20260509223806 75 104 5.0 12.0 0.00 0.00 0.00 29 1029.4
20260509223531 75 93 5.0 12.0 0.00 0.00 0.00 28 1029.5
20260509222807 75 152 5.0 11.0 0.00 0.00 0.00 27 1029.5
20260509222307 75 116 6.0 11.0 0.00 0.00 0.00 23 1029.5
20260509221807 74 87 4.0 14.0 0.00 0.00 0.00 26 1029.6
20260509221744 75 90 7.0 14.0 0.00 0.00 0.00 22 1029.6
20260509220806 75 127 5.0 12.0 0.00 0.00 0.00 24 1029.7
20260509220304 75 86 5.0 12.0 0.00 0.00 0.00 23 1029.8
20260509215804 74 158 7.0 12.0 0.00 0.00 0.00 23 1029.8
20260509215528 74 137 7.0 14.0 0.00 0.00 0.00 21 1029.9
20260509214803 74 114 6.0 14.0 0.00 0.00 0.00 23 1029.9
20260509214305 74 135 7.0 13.0 0.00 0.00 0.00 24 1029.9
20260509213803 74 102 8.0 13.0 0.00 0.00 0.00 23 1029.9
20260509213306 74 111 6.0 13.0 0.00 0.00 0.00 25 1030.0
20260509212804 74 114 7.0 12.0 0.00 0.00 0.00 22 1030.0
20260509212306 75 127 6.0 11.0 0.00 0.00 0.00 24 1029.9
20260509211804 75 61 3.0 11.0 0.00 0.00 0.00 24 1030.0
20260509211303 75 152 7.0 13.0 0.00 0.00 0.00 22 1030.0
20260509210804 75 68 5.0 13.0 0.00 0.00 0.00 25 1030.1
20260509210302 75 85 6.0 11.0 0.00 0.00 0.00 22 1030.1
20260509205805 75 93 7.0 13.0 0.00 0.00 0.00 25 1030.1
20260509205306 74 140 3.0 13.0 0.00 0.00 0.00 25 1030.0
20260509204804 75 130 6.0 13.0 0.00 0.00 0.00 25 1030.1
20260509204302 75 54 4.0 10.0 0.00 0.00 0.00 25 1030.1
20260509204035 75 51 4.0 12.0 0.00 0.00 0.00 25 1030.1
20260509203302 75 69 5.0 12.0 0.00 0.00 0.00 27 1030.1
20260509202802 74 109 4.0 11.0 0.00 0.00 0.00 26 1030.0
20260509202306 74 117 6.0 11.0 0.00 0.00 0.00 26 1030.1
20260509201803 74 107 6.0 11.0 0.00 0.00 0.00 29 1030.1
20260509201530 73 65 5.0 14.0 0.00 0.00 0.00 29 1030.1
20260509200802 73 128 8.0 14.0 0.00 0.00 0.00 27 1030.2
20260509200304 73 86 4.0 13.0 0.00 0.00 0.00 28 1030.2
20260509200027 74 128 8.0 13.0 0.00 0.00 0.00 27 1030.4
20260509195301 74 135 4.0 12.0 0.00 0.00 0.00 28 1030.4
20260509195034 74 83 4.0 11.0 0.00 0.00 0.00 27 1030.6
20260509194300 73 96 4.0 12.0 0.00 0.00 0.00 28 1030.7
20260509193802 73 135 7.0 12.0 0.00 0.00 0.00 26 1030.7
20260509193530 73 92 4.0 11.0 0.00 0.00 0.00 27 1030.7
20260509193025 72 100 4.0 12.0 0.00 0.00 0.00 26 1030.7
20260509192301 72 90 7.0 12.0 0.00 0.00 0.00 25 1030.7
20260509191802 72 100 5.0 9.0 0.00 0.00 0.00 26 1030.8
20260509191301 72 59 4.0 10.0 0.00 0.00 0.00 28 1030.8
20260509190800 71 124 4.0 10.0 0.00 0.00 0.00 27 1030.8
20260509190301 71 147 4.0 9.0 0.00 0.00 0.00 25 1030.8
20260509185800 70 111 6.0 10.0 0.00 0.00 0.00 25 1030.9
20260509185524 70 117 4.0 11.0 0.00 0.00 0.00 29 1031.0
20260509184800 70 92 4.0 11.0 0.00 0.00 0.00 30 1031.0
20260509184301 70 106 5.0 10.0 0.00 0.00 0.00 29 1031.0
20260509183800 70 96 4.0 11.0 0.00 0.00 0.00 30 1031.0
20260509183301 70 99 6.0 11.0 0.00 0.00 0.00 31 1031.1
20260509182759 70 69 4.0 10.0 0.00 0.00 0.00 33 1031.1
20260509182300 69 79 4.0 9.0 0.00 0.00 0.00 34 1031.1
20260509181801 69 62 4.0 10.0 0.00 0.00 0.00 33 1031.3
20260509181259 68 69 3.0 10.0 0.00 0.00 0.00 32 1031.2
20260509180800 68 86 4.0 7.0 0.00 0.00 0.00 34 1031.2
20260509180259 68 83 2.0 7.0 0.00 0.00 0.00 31 1031.2
20260509175800 69 51 2.0 6.0 0.00 0.00 0.00 32 1031.3
20260509175258 69 83 2.0 6.0 0.00 0.00 0.00 32 1031.2
20260509174759 68 51 3.0 5.0 0.00 0.00 0.00 33 1031.2
20260509174259 68 99 2.0 6.0 0.00 0.00 0.00 32 1031.2
20260509174017 67 282 3.0 6.0 0.00 0.00 0.00 32 1031.3
20260509173259 67 158 3.0 5.0 0.00 0.00 0.00 33 1031.4
20260509172759 66 59 2.0 6.0 0.00 0.00 0.00 34 1031.4
20260509172259 66 102 2.0 6.0 0.00 0.00 0.00 34 1031.4
20260509171758 66 114 2.0 4.0 0.00 0.00 0.00 35 1031.4
20260509171300 65 79 2.0 5.0 0.00 0.00 0.00 34 1031.5
20260509170758 66 118 2.0 5.0 0.00 0.00 0.00 34 1031.5
20260509170258 65 135 1.0 5.0 0.00 0.00 0.00 36 1031.5
20260509165758 65 275 1.0 3.0 0.00 0.00 0.00 35 1031.6
20260509165258 64 87 0.0 4.0 0.00 0.00 0.00 35 1031.6
20260509164758 64 51 1.0 4.0 0.00 0.00 0.00 37 1031.7
20260509164257 64 16 1.0 3.0 0.00 0.00 0.00 38 1031.9
20260509163759 63 274 0.0 5.0 0.00 0.00 0.00 39 1031.8
20260509163257 62 13 2.0 5.0 0.00 0.00 0.00 40 1032.0
20260509162759 62 38 1.0 5.0 0.00 0.00 0.00 39 1032.2
20260509162257 62 66 3.0 5.0 0.00 0.00 0.00 39 1032.2
20260509161757 62 66 2.0 4.0 0.00 0.00 0.00 42 1032.3
20260509161255 61 68 2.0 4.0 0.00 0.00 0.00 41 1032.3
20260509160753 61 87 2.0 5.0 0.00 0.00 0.00 40 1032.4
20260509160258 61 203 1.0 5.0 0.00 0.00 0.00 40 1032.4
20260509160012 61 78 1.0 3.0 0.00 0.00 0.00 42 1032.5
20260509155258 62 89 1.0 3.0 0.00 0.00 0.00 40 1032.5
20260509154756 61 353 0.0 3.0 0.00 0.00 0.00 44 1032.5
20260509154258 61 45 1.0 3.0 0.00 0.00 0.00 43 1032.4
20260509153756 60 10 1.0 4.0 0.00 0.00 0.00 45 1032.5
20260509153740 59 307 0.0 4.0 0.00 0.00 0.00 44 1032.5
20260509152756 60 329 1.0 3.0 0.00 0.00 0.00 45 1032.5
20260509152743 59 38 0.0 4.0 0.00 0.00 0.00 45 1032.6
20260509151756 58 42 1.0 4.0 0.00 0.00 0.00 45 1032.6
20260509151256 58 16 1.0 3.0 0.00 0.00 0.00 46 1032.5
20260509150757 58 80 0.0 3.0 0.00 0.00 0.00 45 1032.5
20260509150255 57 85 1.0 3.0 0.00 0.00 0.00 47 1032.6
20260509145755 57 17 1.0 3.0 0.00 0.00 0.00 47 1032.6
20260509145515 57 25 1.0 2.0 0.00 0.00 0.00 49 1032.5
20260509144755 56 32 1.0 2.0 0.00 0.00 0.00 49 1032.5
20260509144514 56 27 1.0 2.0 0.00 0.00 0.00 50 1032.5
20260509144024 56 295 0.0 3.0 0.00 0.00 0.00 51 1032.5
20260509143255 56 28 0.0 3.0 0.00 0.00 0.00 50 1032.4
20260509142754 55 25 0.0 3.0 0.00 0.00 0.00 50 1032.4
20260509142255 55 351 1.0 6.0 0.00 0.00 0.00 51 1032.4
20260509141754 54 282 1.0 7.0 0.00 0.00 0.00 51 1032.5
20260509141254 53 258 3.0 7.0 0.00 0.00 0.00 51 1032.5
20260509140755 53 262 4.0 7.0 0.00 0.00 0.00 51 1032.4
20260509140514 53 258 3.0 6.0 0.00 0.00 0.00 53 1032.4
20260509135754 52 282 1.0 10.0 0.00 0.00 0.00 53 1032.4
20260509135253 52 279 4.0 10.0 0.00 0.00 0.00 53 1032.3
20260509134755 52 278 2.0 4.0 0.00 0.00 0.00 55 1032.3
20260509134253 51 271 0.0 7.0 0.00 0.00 0.00 55 1032.3
20260509133755 51 268 2.0 7.0 0.00 0.00 0.00 56 1032.2
20260509133253 50 286 2.0 5.0 0.00 0.00 0.00 57 1032.2
20260509132753 49 275 2.0 5.0 0.00 0.00 0.00 58 1032.2
20260509132252 49 278 0.0 3.0 0.00 0.00 0.00 59 1032.2
20260509131753 49 278 1.0 3.0 0.00 0.00 0.00 59 1032.2
20260509131250 49 268 1.0 3.0 0.00 0.00 0.00 60 1032.0
20260509130752 48 269 0.0 1.0 0.00 0.00 0.00 61 1032.0
20260509130253 48 234 0.0 4.0 0.00 0.00 0.00 61 1032.0
20260509125752 48 344 0.0 4.0 0.00 0.00 0.00 60 1032.0
20260509125253 48 272 0.0 6.0 0.00 0.00 0.00 60 1032.2
20260509125013 48 271 1.0 6.0 0.00 0.00 0.00 61 1032.0
20260509124252 47 281 1.0 3.0 0.00 0.00 0.00 63 1032.2
20260509123749 46 276 2.0 3.0 0.00 0.00 0.00 64 1032.2
20260509123508 46 266 0.0 3.0 0.00 0.00 0.00 62 1032.2
20260509123008 47 259 1.0 2.0 0.00 0.00 0.00 61 1032.3
20260509122252 47 255 0.0 1.0 0.00 0.00 0.00 60 1032.2
20260509121753 48 103 0.0 1.0 0.00 0.00 0.00 59 1032.3
20260509121252 48 103 0.0 1.0 0.00 0.00 0.00 59 1032.3
20260509120751 48 130 0.0 1.0 0.00 0.00 0.00 58 1032.3
20260509120252 49 104 0.0 1.0 0.00 0.00 0.00 57 1032.3
20260509115751 49 94 0.0 5.0 0.00 0.00 0.00 55 1032.3
20260509115252 49 144 1.0 5.0 0.00 0.00 0.00 55 1032.3
20260509114750 51 63 1.0 3.0 0.00 0.00 0.00 53 1032.4
20260509114249 52 244 0.0 3.0 0.00 0.00 0.00 51 1032.3
20260509113750 52 307 0.0 4.0 0.00 0.00 0.00 51 1032.3
20260509113252 53 282 0.0 6.0 0.00 0.00 0.00 51 1032.3
20260509112251 53 299 3.0 6.0 0.00 0.00 0.00 50 1032.3
20260509111750 53 326 1.0 7.0 0.00 0.00 0.00 50 1032.2
20260509111250 53 281 2.0 7.0 0.00 0.00 0.00 50 1032.2
20260509110747 53 266 3.0 12.0 0.00 0.00 0.00 49 1032.2
20260509110246 54 288 5.0 12.0 0.00 0.00 0.00 48 1032.3
20260509105748 54 265 5.0 12.0 0.00 0.00 0.00 49 1032.3
20260509105249 53 234 6.0 10.0 0.00 0.00 0.00 49 1032.3
20260509104751 53 298 5.0 9.0 0.00 0.00 0.00 50 1032.3
20260509104521 53 274 4.0 9.0 0.00 0.00 0.00 50 1032.4
20260509103749 53 288 4.0 9.0 0.00 0.00 0.00 50 1032.4
20260509103249 53 289 3.0 5.0 0.00 0.00 0.00 51 1032.3
20260509102745 53 269 2.0 6.0 0.00 0.00 0.00 50 1032.3
20260509102246 53 262 3.0 6.0 0.00 0.00 0.00 50 1032.2
20260509101745 53 283 3.0 5.0 0.00 0.00 0.00 50 1032.2
20260509101247 53 274 1.0 4.0 0.00 0.00 0.00 50 1032.2
20260509100749 54 295 1.0 5.0 0.00 0.00 0.00 48 1031.9
20260509100249 54 288 3.0 5.0 0.00 0.00 0.00 48 1032.0
20260509095748 54 266 1.0 5.0 0.00 0.00 0.00 48 1031.9
20260509095248 54 278 1.0 5.0 0.00 0.00 0.00 47 1032.0
20260509094745 55 293 0.0 9.0 0.00 0.00 0.00 47 1031.9
20260509094244 55 266 4.0 12.0 0.00 0.00 0.00 46 1031.8
20260509093746 55 269 3.0 12.0 0.00 0.00 0.00 46 1031.7
20260509093513 55 268 3.0 9.0 0.00 0.00 0.00 46 1031.8
20260509092746 55 295 6.0 13.0 0.00 0.00 0.00 45 1031.7
20260509092248 55 283 6.0 13.0 0.00 0.00 0.00 46 1031.6
20260509092012 55 278 5.0 13.0 0.00 0.00 0.00 46 1031.5
20260509091247 56 300 6.0 15.0 0.00 0.00 0.00 45 1031.4
20260509090747 56 279 8.0 15.0 0.00 0.00 0.00 46 1031.5
20260509090247 56 282 7.0 13.0 0.00 0.00 0.00 46 1031.5
20260509085747 56 282 6.0 10.0 0.00 0.00 0.00 46 1031.5
20260509085247 56 302 6.0 13.0 0.00 0.00 0.00 46 1031.5
20260509084746 56 272 6.0 13.0 0.00 0.00 0.00 46 1031.5
20260509084247 55 285 5.0 10.0 0.00 0.00 0.00 46 1031.5
20260509083747 56 259 6.0 12.0 0.00 0.00 0.00 46 1031.5
20260509083512 56 274 7.0 12.0 0.00 0.00 0.00 46 1031.4
20260509082746 56 295 6.0 11.0 0.00 0.00 0.00 46 1031.4
20260509082246 56 276 5.0 11.0 0.00 0.00 0.00 46 1031.3
20260509082008 55 282 4.0 10.0 0.00 0.00 0.00 46 1031.3
20260509081246 55 276 4.0 9.0 0.00 0.00 0.00 47 1031.3
20260509080747 55 289 3.0 9.0 0.00 0.00 0.00 47 1031.2
20260509080246 56 241 3.0 7.0 0.00 0.00 0.00 46 1031.2
20260509075747 56 262 4.0 10.0 0.00 0.00 0.00 46 1031.1
20260509075245 56 283 3.0 12.0 0.00 0.00 0.00 46 1031.2
20260509074745 56 24 4.0 12.0 0.00 0.00 0.00 46 1031.1
20260509074246 56 288 7.0 12.0 0.00 0.00 0.00 46 1031.1
20260509073745 56 269 4.0 12.0 0.00 0.00 0.00 46 1031.0
20260509073246 56 285 3.0 11.0 0.00 0.00 0.00 46 1030.9
20260509072745 56 274 5.0 11.0 0.00 0.00 0.00 46 1030.9
20260509072513 56 279 4.0 10.0 0.00 0.00 0.00 46 1030.8
20260509071745 56 266 5.0 9.0 0.00 0.00 0.00 46 1030.8
20260509071246 56 281 5.0 10.0 0.00 0.00 0.00 46 1030.7
20260509070745 56 285 4.0 10.0 0.00 0.00 0.00 46 1030.7
20260509070244 56 299 4.0 10.0 0.00 0.00 0.00 46 1030.7
20260509065744 56 268 4.0 10.0 0.00 0.00 0.00 46 1030.7
20260509065244 56 278 4.0 9.0 0.00 0.00 0.00 46 1030.7
20260509064745 56 282 4.0 9.0 0.00 0.00 0.00 45 1030.7
20260509064245 56 275 4.0 7.0 0.00 0.00 0.00 45 1030.7
20260509063742 56 257 3.0 7.0 0.00 0.00 0.00 45 1030.6
20260509063241 55 299 4.0 7.0 0.00 0.00 0.00 46 1030.6
20260509062743 55 292 3.0 6.0 0.00 0.00 0.00 46 1030.7
20260509062506 55 248 4.0 6.0 0.00 0.00 0.00 45 1030.6
20260509061744 56 255 2.0 7.0 0.00 0.00 0.00 45 1030.6
20260509061244 56 283 3.0 10.0 0.00 0.00 0.00 45 1030.4
20260509060750 56 279 3.0 10.0 0.00 0.00 0.00 45 1030.6
20260509060743 56 264 3.0 10.0 0.00 0.00 0.00 45 1030.4
20260509055742 56 271 1.0 4.0 0.00 0.00 0.00 45 1030.4
20260509055244 56 274 2.0 9.0 0.00 0.00 0.00 44 1030.6
20260509054742 56 285 1.0 9.0 0.00 0.00 0.00 43 1030.4
20260509054242 56 268 3.0 7.0 0.00 0.00 0.00 44 1030.4
20260509053742 56 283 3.0 6.0 0.00 0.00 0.00 43 1030.4
20260509053242 56 238 3.0 6.0 0.00 0.00 0.00 44 1030.4
20260509052742 56 275 2.0 5.0 0.00 0.00 0.00 43 1030.4
20260509052242 56 254 1.0 6.0 0.00 0.00 0.00 43 1030.3
20260509051743 56 268 3.0 6.0 0.00 0.00 0.00 43 1030.3
20260509051242 56 265 2.0 5.0 0.00 0.00 0.00 43 1030.2
20260509050743 56 252 1.0 3.0 0.00 0.00 0.00 42 1030.3
20260509050241 56 259 1.0 10.0 0.00 0.00 0.00 41 1030.2
20260509045742 57 266 4.0 10.0 0.00 0.00 0.00 41 1030.2
20260509045241 56 266 2.0 5.0 0.00 0.00 0.00 42 1030.1
20260509044742 56 262 0.0 5.0 0.00 0.00 0.00 41 1030.1
20260509044732 56 276 1.0 5.0 0.00 0.00 0.00 41 1030.0
20260509043741 56 245 1.0 3.0 0.00 0.00 0.00 41 1030.0
20260509043242 56 245 1.0 5.0 0.00 0.00 0.00 40 1029.9
20260509043000 57 278 1.0 6.0 0.00 0.00 0.00 40 1029.9
20260509042242 57 283 2.0 6.0 0.00 0.00 0.00 39 1029.8
20260509041740 57 271 1.0 4.0 0.00 0.00 0.00 39 1029.7
20260509041240 58 282 0.0 6.0 0.00 0.00 0.00 38 1029.6
20260509040740 58 283 1.0 6.0 0.00 0.00 0.00 38 1029.6
20260509040505 58 283 2.0 6.0 0.00 0.00 0.00 37 1029.6
20260509040012 58 326 1.0 5.0 0.00 0.00 0.00 37 1029.5
20260509035500 58 266 3.0 4.0 0.00 0.00 0.00 37 1029.5
20260509034742 58 271 2.0 6.0 0.00 0.00 0.00 36 1029.4
20260509034247 59 288 1.0 7.0 0.00 0.00 0.00 35 1029.3
20260509034240 59 272 0.0 6.0 0.00 0.00 0.00 35 1029.3
20260509033502 59 278 4.0 7.0 0.00 0.00 0.00 35 1029.1
20260509033228 59 290 4.0 6.0 0.00 0.00 0.00 34 1028.9
20260509032502 60 250 2.0 5.0 0.00 0.00 0.00 34 1028.7
20260509032003 60 303 1.0 14.0 0.00 0.00 0.00 34 1028.6
20260509031240 60 295 5.0 14.0 0.00 0.00 0.00 33 1028.5